WD5EAA Weather Reports


Display with metric or nautical units.
time (UTC)temp
F
wind
direction
speed
MPH
gust
MPH
rain 1hr
in
rain 24hr
in
rain mn
in
humidity
%
barometer
mb
20260505025112 49 17 5.0 8.0 0.00 0.00 0.00 70 1011.2
20260505024532 50 360 5.0 8.0 0.00 0.00 0.00 70 1011.4
20260505024015 50 323 2.0 8.0 0.00 0.00 0.00 69 1011.4
20260505023515 50 343 4.0 8.0 0.00 0.00 0.00 68 1011.3
20260505023039 50 338 4.0 6.0 0.00 0.00 0.00 66 1011.2
20260505022515 50 338 3.0 6.0 0.00 0.00 0.00 66 1011.2
20260505022017 50 350 3.0 6.0 0.00 0.00 0.00 66 1011.0
20260505021530 50 336 4.0 7.0 0.00 0.00 0.00 66 1011.0
20260505021015 50 360 3.0 7.0 0.00 0.00 0.00 66 1010.9
20260505020515 50 360 3.0 6.0 0.00 0.00 0.00 67 1010.9
20260505020036 50 346 2.0 8.0 0.00 0.00 0.00 69 1011.0
20260505015517 50 350 4.0 8.0 0.00 0.00 0.00 68 1010.8
20260505015016 50 343 3.0 8.0 0.00 0.00 0.00 68 1010.6
20260505014534 50 319 4.0 12.0 0.00 0.00 0.00 67 1010.7
20260505014015 51 325 4.0 18.0 0.00 0.00 0.00 65 1010.8
20260505013517 51 335 9.0 18.0 0.00 0.00 0.00 64 1010.9
20260505013036 50 9 13.0 22.0 0.00 0.00 0.00 66 1010.9
20260505012516 50 13 14.0 24.0 0.00 0.00 0.00 68 1010.8
20260505012016 51 352 18.0 24.0 0.00 0.00 0.00 66 1010.7
20260505011533 52 15 16.0 23.0 0.00 0.00 0.00 62 1010.6
20260505011019 53 22 16.0 23.0 0.00 0.00 0.00 60 1010.5
20260505010515 54 31 8.0 15.0 0.00 0.00 0.00 58 1010.4
20260505010030 54 36 7.0 17.0 0.00 0.00 0.00 55 1010.4
20260505005515 54 28 12.0 19.0 0.00 0.00 0.00 53 1010.3
20260505005016 55 33 15.0 23.0 0.00 0.00 0.00 52 1010.3
20260505004537 55 46 16.0 24.0 0.00 0.00 0.00 51 1010.3
20260505004016 57 59 18.0 24.0 0.00 0.00 0.00 46 1010.2
20260505003515 57 38 15.0 19.0 0.00 0.00 0.00 42 1010.0
20260505003030 57 32 13.0 19.0 0.00 0.00 0.00 41 1010.0
20260505002516 58 17 13.0 22.0 0.00 0.00 0.00 41 1009.9
20260505002015 58 350 15.0 23.0 0.00 0.00 0.00 41 1009.9
20260505001531 58 360 18.0 23.0 0.00 0.00 0.00 41 1009.8
20260505001014 59 352 18.0 23.0 0.00 0.00 0.00 39 1009.7
20260505000516 60 360 17.0 24.0 0.00 0.00 0.00 38 1009.8
20260505000039 60 21 18.0 24.0 0.00 0.00 0.00 37 1009.7
20260504235516 60 24 18.0 24.0 0.00 0.00 0.00 37 1009.7
20260504235015 60 26 19.0 24.0 0.00 0.00 0.00 37 1009.6
20260504234536 60 19 19.0 26.0 0.00 0.00 0.00 38 1009.6
20260504234015 60 19 15.0 26.0 0.00 0.00 0.00 37 1009.6
20260504233515 60 5 18.0 27.0 0.00 0.00 0.00 37 1009.6
20260504233033 60 11 21.0 28.0 0.00 0.00 0.00 36 1009.4
20260504232516 61 352 20.0 28.0 0.00 0.00 0.00 36 1009.5
20260504232016 61 5 19.0 25.0 0.00 0.00 0.00 36 1009.5
20260504231529 62 9 20.0 25.0 0.00 0.00 0.00 36 1009.4
20260504231015 62 360 18.0 29.0 0.00 0.00 0.00 34 1009.3
20260504230516 62 360 17.0 29.0 0.00 0.00 0.00 35 1009.3
20260504230034 62 30 22.0 30.0 0.00 0.00 0.00 35 1009.1
20260504225514 62 23 24.0 32.0 0.00 0.00 0.00 36 1009.1
20260504225014 61 12 25.0 32.0 0.00 0.00 0.00 36 1009.2
20260504224530 61 17 23.0 34.0 0.00 0.00 0.00 37 1009.1
20260504224016 61 360 26.0 34.0 0.00 0.00 0.00 36 1008.9
20260504223516 61 13 26.0 34.0 0.00 0.00 0.00 36 1009.0
20260504223030 61 30 24.0 34.0 0.00 0.00 0.00 36 1008.9
20260504222518 61 21 26.0 34.0 0.00 0.00 0.00 35 1008.8
20260504222019 62 22 26.0 34.0 0.00 0.00 0.00 34 1008.8
20260504221534 63 9 24.0 31.0 0.00 0.00 0.00 32 1008.7
20260504221015 64 22 20.0 28.0 0.00 0.00 0.00 30 1008.6
20260504220515 64 10 20.0 28.0 0.00 0.00 0.00 30 1008.4
20260504220032 65 360 21.0 28.0 0.00 0.00 0.00 29 1008.3
20260504215515 66 14 20.0 26.0 0.00 0.00 0.00 28 1008.3
20260504215017 66 25 14.0 20.0 0.00 0.00 0.00 25 1008.5
20260504214529 66 22 11.0 21.0 0.00 0.00 0.00 26 1008.7
20260504214015 66 336 14.0 21.0 0.00 0.00 0.00 26 1008.8
20260504213515 66 324 11.0 21.0 0.00 0.00 0.00 26 1009.0
20260504213053 66 351 13.0 19.0 0.00 0.00 0.00 26 1008.9
20260504212516 67 323 11.0 24.0 0.00 0.00 0.00 25 1008.8
20260504212017 66 352 16.0 24.0 0.00 0.00 0.00 25 1008.9
20260504211532 66 350 15.0 23.0 0.00 0.00 0.00 25 1009.0
20260504211016 67 360 15.0 23.0 0.00 0.00 0.00 25 1008.9
20260504210516 67 20 10.0 17.0 0.00 0.00 0.00 24 1008.9
20260504210030 67 13 9.0 15.0 0.00 0.00 0.00 23 1009.0
20260504205516 67 351 7.0 15.0 0.00 0.00 0.00 23 1009.0
20260504205015 67 352 6.0 15.0 0.00 0.00 0.00 23 1009.0
20260504204533 67 338 10.0 16.0 0.00 0.00 0.00 22 1009.0
20260504204015 67 348 7.0 20.0 0.00 0.00 0.00 22 1009.0
20260504203515 67 360 10.0 20.0 0.00 0.00 0.00 22 1009.0
20260504203035 68 271 6.0 18.0 0.00 0.00 0.00 21 1009.0
20260504202514 69 344 10.0 20.0 0.00 0.00 0.00 20 1009.0
20260504202016 70 348 6.0 20.0 0.00 0.00 0.00 20 1008.9
20260504201533 70 333 9.0 20.0 0.00 0.00 0.00 22 1009.0
20260504201018 71 271 10.0 16.0 0.00 0.00 0.00 21 1009.1
20260504200516 69 300 8.0 30.0 0.00 0.00 0.00 24 1009.0
20260504200032 66 254 12.0 30.0 0.00 0.00 0.00 25 1009.1
20260504195515 66 258 15.0 31.0 0.00 0.00 0.00 25 1009.0
20260504195017 66 297 17.0 31.0 0.00 0.00 0.00 24 1009.1
20260504194530 66 267 15.0 24.0 0.00 0.00 0.00 24 1009.1
20260504194018 66 295 10.0 18.0 0.00 0.00 0.00 25 1009.2
20260504193517 67 271 9.0 18.0 0.00 0.00 0.00 23 1009.0
20260504193037 67 276 12.0 19.0 0.00 0.00 0.00 23 1009.2
20260504192513 67 258 11.0 22.0 0.00 0.00 0.00 22 1009.2
20260504192013 67 279 9.0 24.0 0.00 0.00 0.00 21 1009.1
20260504191532 67 281 16.0 24.0 0.00 0.00 0.00 22 1009.0
20260504191017 67 294 10.0 18.0 0.00 0.00 0.00 23 1009.0
20260504190514 67 292 10.0 18.0 0.00 0.00 0.00 23 1009.0
20260504190029 67 280 13.0 18.0 0.00 0.00 0.00 24 1009.0
20260504185519 67 284 12.0 18.0 0.00 0.00 0.00 24 1009.0
20260504185017 67 276 6.0 13.0 0.00 0.00 0.00 22 1009.2
20260504184532 67 284 7.0 13.0 0.00 0.00 0.00 23 1009.2
20260504184013 68 305 8.0 13.0 0.00 0.00 0.00 21 1009.1
20260504183514 69 270 8.0 18.0 0.00 0.00 0.00 23 1009.2
20260504183031 70 312 6.0 18.0 0.00 0.00 0.00 23 1009.4
20260504182519 70 351 9.0 18.0 0.00 0.00 0.00 23 1009.2
20260504182013 70 322 9.0 16.0 0.00 0.00 0.00 21 1009.3
20260504181532 69 311 6.0 16.0 0.00 0.00 0.00 22 1009.4
20260504181016 69 317 3.0 18.0 0.00 0.00 0.00 23 1009.4
20260504180516 69 352 8.0 18.0 0.00 0.00 0.00 23 1009.5
20260504180032 69 310 12.0 18.0 0.00 0.00 0.00 21 1009.5
20260504175515 69 315 6.0 16.0 0.00 0.00 0.00 23 1009.6
20260504175018 69 281 10.0 16.0 0.00 0.00 0.00 22 1009.6
20260504174531 70 340 8.0 16.0 0.00 0.00 0.00 22 1009.7
20260504174017 70 326 6.0 15.0 0.00 0.00 0.00 24 1009.8
20260504173517 69 331 10.0 18.0 0.00 0.00 0.00 22 1009.8
20260504173037 69 360 8.0 18.0 0.00 0.00 0.00 22 1009.8
20260504172517 69 298 11.0 18.0 0.00 0.00 0.00 22 1009.9
20260504172017 69 317 9.0 13.0 0.00 0.00 0.00 22 1009.9
20260504171536 68 288 8.0 19.0 0.00 0.00 0.00 22 1010.0
20260504171018 68 279 11.0 19.0 0.00 0.00 0.00 22 1010.1
20260504170518 69 257 10.0 20.0 0.00 0.00 0.00 24 1010.1
20260504151017 64 265 16.0 21.0 0.00 0.00 0.00 26 1010.8
20260504150518 64 271 15.0 20.0 0.00 0.00 0.00 27 1010.8
20260504141017 57 250 7.0 17.0 0.00 0.00 0.00 38 1010.9
20260504140516 57 231 9.0 18.0 0.00 0.00 0.00 36 1010.9
20260504130517 49 221 9.0 14.0 0.00 0.00 0.00 47 1010.6
20260504110517 45 227 11.0 13.0 0.00 0.00 0.00 53 1010.6
20260504100517 42 242 10.0 12.0 0.00 0.00 0.00 59 1010.9
20260504081535 47 228 7.0 9.0 0.00 0.00 0.00 51 1011.6
20260504081017 47 243 8.0 10.0 0.00 0.00 0.00 50 1011.6
20260504080516 48 253 7.0 10.0 0.00 0.00 0.00 48 1011.6
20260504050512 59 255 12.0 18.0 0.00 0.00 0.00 30 1012.0
20260504045513 59 269 13.0 19.0 0.00 0.00 0.00 29 1012.1
20260504045020 58 267 11.0 19.0 0.00 0.00 0.00 32 1012.2
20260504044540 58 250 15.0 19.0 0.00 0.00 0.00 33 1012.2
20260504044013 56 248 12.0 17.0 0.00 0.00 0.00 36 1012.3
20260504043516 57 233 12.0 17.0 0.00 0.00 0.00 36 1012.4
20260504043035 57 237 12.0 17.0 0.00 0.00 0.00 34 1012.4
20260504042515 58 235 12.0 17.0 0.00 0.00 0.00 33 1012.4
20260504042016 59 250 11.0 16.0 0.00 0.00 0.00 32 1012.4
20260504041532 60 246 12.0 19.0 0.00 0.00 0.00 30 1012.5
20260504041015 60 238 13.0 19.0 0.00 0.00 0.00 30 1012.6
20260504040519 59 257 9.0 16.0 0.00 0.00 0.00 31 1012.5
20260504040034 59 274 10.0 18.0 0.00 0.00 0.00 32 1012.8
20260504035517 60 265 12.0 26.0 0.00 0.00 0.00 30 1013.0
20260504035016 60 265 15.0 26.0 0.00 0.00 0.00 30 1013.1
20260504034539 59 275 9.0 16.0 0.00 0.00 0.00 32 1013.2
20260504034015 60 263 10.0 16.0 0.00 0.00 0.00 31 1013.1
20260504033515 60 291 7.0 10.0 0.00 0.00 0.00 29 1013.1
20260504033048 59 304 7.0 10.0 0.00 0.00 0.00 31 1013.0
20260504032513 59 269 4.0 7.0 0.00 0.00 0.00 31 1013.1
20260504032015 59 325 3.0 6.0 0.00 0.00 0.00 30 1013.1
20260504031534 59 343 3.0 10.0 0.00 0.00 0.00 30 1013.1
20260504031015 59 352 5.0 12.0 0.00 0.00 0.00 31 1013.1
20260504030515 60 5 7.0 12.0 0.00 0.00 0.00 29 1013.0
20260504030030 60 335 8.0 12.0 0.00 0.00 0.00 29 1013.0
20260504025516 60 338 7.0 10.0 0.00 0.00 0.00 30 1013.1